THORAD DELTA 1 DEB, 8153

Orbit data source: Space-Track

THORAD DELTA 1 DEB, 8153 is space debris in SSO originally from a launch on Fri, 15 Nov 1974 UTC launched from the Air Force Western Test Range (AFWTR). Debris objects in space refer to the collection of defunct objects orbiting the Earth. Examples of debris include non-operational satellites, rocket bodies, and fragments generated from explosions, collisions, or faulty payload assembly.

Loading next visibility...
Identifier
8153, 1974-089T
Orbit
SSO
Country
Flag of USUS
Related business
Manufacturer
Unknown
Mission
Spacecraft
Bus & Motor
Unknown
Mass
Unknown
Launch date (UTC)
1974-11-15 (51 years ago)
Launch vehicle
Unknown
Launch site
Air Force Western Test Range (AFWTR)
Object type
Payload
Rocket body
Debris
Shape & HBR
Unknown shape, 0.1 m
Radar Cross Section
Small (<0.1 m²)

Expand to show TLE details & history
Last TLE update: 2 days ago

TLE from 2 days ago
0 THORAD DELTA 1 DEB
1  8153U 74089T   26071.61178101  .00000009  00000-0  42641-3 0  9995
2  8153 100.9297 126.5237 0283456 171.9067 344.7732 12.09317841266620
Epoch: 2026-03-12T14:40Z
TLE epoch observation values (Epoch: 2026-03-12T14:40:57.879Z)
Latitude
23.76034°
Longitude
-79.12424°
Altitude
1,423.114 km
Speed
7.248 km/s
True Right ascension
20h 45m 30s
True Declination
23° 38' 41"
Sunlit
Object was in daylight at epoch
Visualization orbit readout
Latitude
Unknown
Longitude
Unknown
Altitude
Unknown
Speed
Unknown
Apparent Right ascension
Unknown
Apparent Declination
Unknown
Sunlit
N/A
Visualization observer readout
Local Sidereal Time
09:38:19
Azimuth
Unknown
Elevation
Unknown
Doppler factor
Unknown
Orbital elements
Apogee altitude
1,864.155 km
Perigee altitude
1,409.77 km
Semi-major axis
8,015.1 km
Eccentricity
0.02835
Inclination
100.9297°
RAAN
126.5237°
Arg. of periapsis
171.9067°
True anomaly
343.88998°
Mean anomaly
344.7732°
Eccentric anomaly
344.33467°
Mean motion
3.02468 °/min
Orbital period
119.02 mins
BSTAR
0.00042641
Loading maneuver chart data...
Computing Atmospheric mass density...

Documentation

Showing up to 5 results
|